Find Starlink 32493

NORAD ID: 62025 Int'l Des: 2024-213 Owner: SPXS Country: US Constellation: starlink operational
LEOCIRCULAR

Live Position

Loading 3D Globe...

About Starlink 32493

Description loading...

Upcoming Passes

Passes for default location (London). Set your location on the main map for personalized predictions.

Altitude History

Loading altitude history...

Two-Line Element Set

1 62025U 24213T 26121.47910744 .00038015 00000-0 12879-2 0 9991
2 62025 53.1575 283.1696 0001391 81.6464 278.4694 15.30230033 81235
Epoch: May 1, 2026 • Age: 6 hours

Current Status

Altitude 484.6 km
Velocity 7.62 km/s
Sub-Earth Point -29.25°S, 9.89°E
Launch Date Nov 18, 2024
Age 1.4 years
Type internet

Technical Details

Classification Payload
Mass 730.00 kg
Dry Mass 700.00 kg
Total Mass 730.00 kg
Length 0.30 m
Diameter 4.10 m
Span 29.00 m
Shape Box + pan
Manufacturer SPXS
Bus Type Starlink V2M
Phase Status In Orbit
Owner/State SPXS/US

Most Searched